owner,sensor,date,latitude,longitude,vertical_datum,wind_speed,wind_to_direction,wind_speed_of_gust,qcFlag 
NDBC,ioos:station:wmo:42020:1,2013-05-01T00:00:00Z,26.9680,-96.6940,5.0,6.7,120.0,,'1111122,1111122,1111122' 
NDBC,ioos:station:wmo:42020:1,2013-05-01T01:00:00Z,26.9680,-96.6940,5.0,6.7,130.0,,'1111122,1111122,1111122' 
NDBC,ioos:station:wmo:42020:1,2013-05-01T02:00:00Z,26.9680,-96.6940,5.0,7.7,130.0,,'1111122,1111122,1111122' 
NDBC,ioos:station:wmo:42020:1,2013-05-01T03:00:00Z,26.9680,-96.6940,5.0,7.7,130.0,,'1111122,1111122,1111122' 
NDBC,ioos:station:wmo:42020:1,2013-05-01T04:00:00Z,26.9680,-96.6940,5.0,6.7,140.0,,'1111122,1111122,1111122' 
NDBC,ioos:station:wmo:42020:1,2013-05-01T05:00:00Z,26.9680,-96.6940,5.0,5.7,140.0,,'1111122,1111122,1111122' 
NDBC,ioos:station:wmo:42020:1,2013-05-01T06:00:00Z,26.9680,-96.6940,5.0,4.6,150.0,,'1111122,1111122,1111122' 
NDBC,ioos:station:wmo:42020:1,2013-05-01T07:00:00Z,26.9680,-96.6940,5.0,2.6,160.0,,'1111122,1111122,1111122' 
NDBC,ioos:station:wmo:42020:1,2013-05-01T08:00:00Z,26.9680,-96.6940,5.0,1.5,130.0,,'1111122,1111122,1111122' 
NDBC,ioos:station:wmo:42020:1,2013-05-01T10:00:00Z,26.9680,-96.6940,5.0,0.5,110.0,,'1111122,1111122,1111122' 
NDBC,ioos:station:wmo:42020:1,2013-05-01T11:00:00Z,26.9680,-96.6940,5.0,1.5,110.0,,'1111122,1111122,1111122' 
NDBC,ioos:station:wmo:42020:1,2013-05-01T12:00:00Z,26.9680,-96.6940,5.0,0.5,60.0,,'1111122,1111122,1111122' 
NDBC,ioos:station:wmo:42020:1,2013-05-01T13:00:00Z,26.9680,-96.6940,5.0,2.6,80.0,,'1111122,1111122,1111122' 
NDBC,ioos:station:wmo:42020:1,2013-05-01T14:00:00Z,26.9680,-96.6940,5.0,2.6,90.0,,'1111122,1111122,1111122' 
NDBC,ioos:station:wmo:42020:1,2013-05-01T15:00:00Z,26.9680,-96.6940,5.0,3.6,100.0,,'1111122,1111122,1111122' 
NDBC,ioos:station:wmo:42020:1,2013-05-01T16:00:00Z,26.9680,-96.6940,5.0,3.6,90.0,,'1111122,1111122,1111122' 
NDBC,ioos:station:wmo:42020:1,2013-05-01T17:00:00Z,26.9680,-96.6940,5.0,3.6,90.0,,'1111122,1111122,1111122' 
NDBC,ioos:station:wmo:42020:1,2013-05-01T18:00:00Z,26.9680,-96.6940,5.0,3.6,90.0,,'1111122,1111122,1111122' 
NDBC,ioos:station:wmo:42020:1,2013-05-01T19:00:00Z,26.9680,-96.6940,5.0,2.6,90.0,,'1111122,1111122,1111122' 
NDBC,ioos:station:wmo:42020:1,2013-05-01T20:00:00Z,26.9680,-96.6940,5.0,2.6,90.0,,'1111122,1111122,1111122' 
NDBC,ioos:station:wmo:42020:1,2013-05-01T21:00:00Z,26.9680,-96.6940,5.0,2.6,90.0,,'1111122,1111122,1111122' 
NDBC,ioos:station:wmo:42020:1,2013-05-01T22:00:00Z,26.9680,-96.6940,5.0,2.6,70.0,,'1111122,1111122,1111122' 
NDBC,ioos:station:wmo:42020:1,2013-05-01T23:00:00Z,26.9680,-96.6940,5.0,3.6,70.0,,'1111122,1111122,1111122' 
NDBC,ioos:station:wmo:42020:1,2013-05-02T00:00:00Z,26.9680,-96.6940,5.0,3.6,70.0,,'1111122,1111122,1111122' 
NDBC,ioos:station:wmo:42020:1,2013-05-02T01:00:00Z,26.9680,-96.6940,5.0,4.6,80.0,,'1111122,1111122,1111122' 
NDBC,ioos:station:wmo:42020:1,2013-05-02T02:00:00Z,26.9680,-96.6940,5.0,4.6,100.0,,'1111122,1111122,1111122' 
NDBC,ioos:station:wmo:42020:1,2013-05-02T03:00:00Z,26.9680,-96.6940,5.0,4.6,110.0,,'1111122,1111122,1111122' 
NDBC,ioos:station:wmo:42020:1,2013-05-02T04:00:00Z,26.9680,-96.6940,5.0,4.6,130.0,,'1111122,1111122,1111122' 
NDBC,ioos:station:wmo:42020:1,2013-05-02T05:00:00Z,26.9680,-96.6940,5.0,3.6,140.0,,'1111122,1111122,1111122' 
NDBC,ioos:station:wmo:42020:1,2013-05-02T06:00:00Z,26.9680,-96.6940,5.0,3.6,140.0,,'1111122,1111122,1111122' 
NDBC,ioos:station:wmo:42020:1,2013-05-02T07:00:00Z,26.9680,-96.6940,5.0,2.6,160.0,,'1111122,1111122,1111122' 
NDBC,ioos:station:wmo:42020:1,2013-05-02T09:00:00Z,26.9680,-96.6940,5.0,1.5,320.0,,'1111122,1111122,1111122' 
NDBC,ioos:station:wmo:42020:1,2013-05-02T10:00:00Z,26.9680,-96.6940,5.0,2.6,300.0,,'1111122,1111122,1111122' 
NDBC,ioos:station:wmo:42020:1,2013-05-02T11:00:00Z,26.9680,-96.6940,5.0,6.7,310.0,,'1111122,1111122,1111122' 
NDBC,ioos:station:wmo:42020:1,2013-05-02T12:00:00Z,26.9680,-96.6940,5.0,3.6,320.0,,'1111122,1111122,1111122' 
NDBC,ioos:station:wmo:42020:1,2013-05-02T13:00:00Z,26.9680,-96.6940,5.0,3.6,100.0,,'1111122,1111122,1111122' 
NDBC,ioos:station:wmo:42020:1,2013-05-02T14:00:00Z,26.9680,-96.6940,5.0,3.6,120.0,,'1111122,1111122,1111122' 
NDBC,ioos:station:wmo:42020:1,2013-05-02T15:00:00Z,26.9680,-96.6940,5.0,2.6,100.0,,'1111122,1111122,1111122' 
NDBC,ioos:station:wmo:42020:1,2013-05-02T16:00:00Z,26.9680,-96.6940,5.0,1.5,260.0,,'1111122,1111122,1111122' 
NDBC,ioos:station:wmo:42020:1,2013-05-02T17:00:00Z,26.9680,-96.6940,5.0,3.6,300.0,,'1111122,1111122,1111122' 
NDBC,ioos:station:wmo:42020:1,2013-05-02T18:00:00Z,26.9680,-96.6940,5.0,6.7,310.0,,'1111122,1111122,1111122' 
NDBC,ioos:station:wmo:42020:1,2013-05-02T19:00:00Z,26.9680,-96.6940,5.0,9.8,320.0,,'1111122,1111122,1111122' 
NDBC,ioos:station:wmo:42020:1,2013-05-02T20:00:00Z,26.9680,-96.6940,5.0,4.6,10.0,,'1111122,1111122,1111122' 
NDBC,ioos:station:wmo:42020:1,2013-05-02T21:00:00Z,26.9680,-96.6940,5.0,4.6,20.0,,'1111122,1111122,1111122' 
NDBC,ioos:station:wmo:42020:1,2013-05-02T22:00:00Z,26.9680,-96.6940,5.0,11.8,340.0,,'1111122,1111122,1111122' 
NDBC,ioos:station:wmo:42020:1,2013-05-02T23:00:00Z,26.9680,-96.6940,5.0,10.8,350.0,,'1111122,1111122,1111122' 
NDBC,ioos:station:wmo:42020:1,2013-05-03T00:00:00Z,26.9680,-96.6940,5.0,11.8,350.0,,'1111122,1111122,1111122' 
NDBC,ioos:station:wmo:42020:1,2013-05-03T01:00:00Z,26.9680,-96.6940,5.0,13.9,350.0,,'1111122,1111122,1111122' 
NDBC,ioos:station:wmo:42020:1,2013-05-03T02:00:00Z,26.9680,-96.6940,5.0,13.9,350.0,,'1111122,1111122,1111122' 
NDBC,ioos:station:wmo:42020:1,2013-05-03T03:00:00Z,26.9680,-96.6940,5.0,13.9,340.0,,'1111122,1111122,1111122' 
NDBC,ioos:station:wmo:42020:1,2013-05-03T04:00:00Z,26.9680,-96.6940,5.0,12.9,350.0,,'1111122,1111122,1111122' 
NDBC,ioos:station:wmo:42020:1,2013-05-03T05:00:00Z,26.9680,-96.6940,5.0,13.9,350.0,,'1111122,1111122,1111122' 
NDBC,ioos:station:wmo:42020:1,2013-05-03T06:00:00Z,26.9680,-96.6940,5.0,13.9,340.0,,'1111122,1111122,1111122' 
NDBC,ioos:station:wmo:42020:1,2013-05-03T07:00:00Z,26.9680,-96.6940,5.0,14.9,340.0,,'1111122,1111122,1111122' 
NDBC,ioos:station:wmo:42020:1,2013-05-03T08:00:00Z,26.9680,-96.6940,5.0,13.9,340.0,,'1111122,1111122,1111122' 
NDBC,ioos:station:wmo:42020:1,2013-05-03T09:00:00Z,26.9680,-96.6940,5.0,13.9,340.0,,'1111122,1111122,1111122' 
NDBC,ioos:station:wmo:42020:1,2013-05-03T10:00:00Z,26.9680,-96.6940,5.0,13.9,340.0,,'1111122,1111122,1111122' 
NDBC,ioos:station:wmo:42020:1,2013-05-03T11:00:00Z,26.9680,-96.6940,5.0,13.9,340.0,,'1111122,1111122,1111122' 
NDBC,ioos:station:wmo:42020:1,2013-05-03T12:00:00Z,26.9680,-96.6940,5.0,13.9,340.0,,'1111122,1111122,1111122' 
NDBC,ioos:station:wmo:42020:1,2013-05-03T13:00:00Z,26.9680,-96.6940,5.0,13.9,340.0,,'1111122,1111122,1111122' 
NDBC,ioos:station:wmo:42020:1,2013-05-03T14:00:00Z,26.9680,-96.6940,5.0,13.9,340.0,,'1111122,1111122,1111122' 
NDBC,ioos:station:wmo:42020:1,2013-05-03T15:00:00Z,26.9680,-96.6940,5.0,13.9,340.0,,'1111122,1111122,1111122' 
NDBC,ioos:station:wmo:42020:1,2013-05-03T16:00:00Z,26.9680,-96.6940,5.0,12.9,340.0,,'1111122,1111122,1111122' 
NDBC,ioos:station:wmo:42020:1,2013-05-03T17:00:00Z,26.9680,-96.6940,5.0,12.9,340.0,,'1111122,1111122,1111122' 
NDBC,ioos:station:wmo:42020:1,2013-05-03T18:00:00Z,26.9680,-96.6940,5.0,11.8,340.0,,'1111122,1111122,1111122' 
NDBC,ioos:station:wmo:42020:1,2013-05-03T19:00:00Z,26.9680,-96.6940,5.0,11.8,340.0,,'1111122,1111122,1111122' 
NDBC,ioos:station:wmo:42020:1,2013-05-03T20:00:00Z,26.9680,-96.6940,5.0,11.8,340.0,,'1111122,1111122,1111122' 
NDBC,ioos:station:wmo:42020:1,2013-05-03T21:00:00Z,26.9680,-96.6940,5.0,10.8,340.0,,'1111122,1111122,1111122' 
NDBC,ioos:station:wmo:42020:1,2013-05-03T22:00:00Z,26.9680,-96.6940,5.0,9.8,340.0,,'1111122,1111122,1111122' 
NDBC,ioos:station:wmo:42020:1,2013-05-03T23:00:00Z,26.9680,-96.6940,5.0,9.8,350.0,,'1111122,1111122,1111122' 
NDBC,ioos:station:wmo:42020:1,2013-05-04T00:00:00Z,26.9680,-96.6940,5.0,8.7,350.0,,'1111122,1111122,1111122' 
NDBC,ioos:station:wmo:42020:1,2013-05-04T01:00:00Z,26.9680,-96.6940,5.0,7.7,350.0,,'1111122,1111122,1111122' 
NDBC,ioos:station:wmo:42020:1,2013-05-04T02:00:00Z,26.9680,-96.6940,5.0,7.7,350.0,,'1111122,1111122,1111122' 
NDBC,ioos:station:wmo:42020:1,2013-05-04T03:00:00Z,26.9680,-96.6940,5.0,8.7,350.0,,'1111122,1111122,1111122' 
NDBC,ioos:station:wmo:42020:1,2013-05-04T04:00:00Z,26.9680,-96.6940,5.0,8.7,360.0,,'1111122,1111122,1111122' 
NDBC,ioos:station:wmo:42020:1,2013-05-04T05:00:00Z,26.9680,-96.6940,5.0,9.8,360.0,,'1111122,1111122,1111122' 
NDBC,ioos:station:wmo:42020:1,2013-05-04T06:00:00Z,26.9680,-96.6940,5.0,8.7,10.0,,'1111122,1111122,1111122' 
NDBC,ioos:station:wmo:42020:1,2013-05-04T07:00:00Z,26.9680,-96.6940,5.0,5.7,20.0,,'1111122,1111122,1111122' 
NDBC,ioos:station:wmo:42020:1,2013-05-04T08:00:00Z,26.9680,-96.6940,5.0,5.7,20.0,,'1111122,1111122,1111122' 
NDBC,ioos:station:wmo:42020:1,2013-05-04T09:00:00Z,26.9680,-96.6940,5.0,3.6,40.0,,'1111122,1111122,1111122' 
NDBC,ioos:station:wmo:42020:1,2013-05-04T10:00:00Z,26.9680,-96.6940,5.0,1.5,60.0,,'1111122,1111122,1111122' 
NDBC,ioos:station:wmo:42020:1,2013-05-04T11:00:00Z,26.9680,-96.6940,5.0,0.5,90.0,,'1111122,1111122,1111122' 
NDBC,ioos:station:wmo:42020:1,2013-05-04T12:00:00Z,26.9680,-96.6940,5.0,1.5,130.0,,'1111122,1111122,1111122' 
NDBC,ioos:station:wmo:42020:1,2013-05-04T13:00:00Z,26.9680,-96.6940,5.0,1.5,170.0,,'1111122,1111122,1111122' 
NDBC,ioos:station:wmo:42020:1,2013-05-04T14:00:00Z,26.9680,-96.6940,5.0,1.5,170.0,,'1111122,1111122,1111122' 
NDBC,ioos:station:wmo:42020:1,2013-05-04T15:00:00Z,26.9680,-96.6940,5.0,2.6,200.0,,'1111122,1111122,1111122' 
NDBC,ioos:station:wmo:42020:1,2013-05-04T16:00:00Z,26.9680,-96.6940,5.0,2.6,200.0,,'1111122,1111122,1111122' 
NDBC,ioos:station:wmo:42020:1,2013-05-04T17:00:00Z,26.9680,-96.6940,5.0,3.6,220.0,,'1111122,1111122,1111122' 
NDBC,ioos:station:wmo:42020:1,2013-05-04T18:00:00Z,26.9680,-96.6940,5.0,4.6,230.0,,'1111122,1111122,1111122' 
NDBC,ioos:station:wmo:42020:1,2013-05-04T19:00:00Z,26.9680,-96.6940,5.0,4.6,230.0,,'1111122,1111122,1111122' 
NDBC,ioos:station:wmo:42020:1,2013-05-04T20:00:00Z,26.9680,-96.6940,5.0,4.6,240.0,,'1111122,1111122,1111122' 
NDBC,ioos:station:wmo:42020:1,2013-05-04T21:00:00Z,26.9680,-96.6940,5.0,4.6,230.0,,'1111122,1111122,1111122' 
NDBC,ioos:station:wmo:42020:1,2013-05-04T22:00:00Z,26.9680,-96.6940,5.0,4.6,250.0,,'1111122,1111122,1111122' 
NDBC,ioos:station:wmo:42020:1,2013-05-04T23:00:00Z,26.9680,-96.6940,5.0,4.6,240.0,,'1111122,1111122,1111122' 
NDBC,ioos:station:wmo:42020:1,2013-05-05T00:00:00Z,26.9680,-96.6940,5.0,4.6,220.0,,'1111122,1111122,1111122' 
NDBC,ioos:station:wmo:42020:1,2013-05-05T01:00:00Z,26.9680,-96.6940,5.0,3.6,220.0,,'1111122,1111122,1111122' 
NDBC,ioos:station:wmo:42020:1,2013-05-05T02:00:00Z,26.9680,-96.6940,5.0,5.7,210.0,,'1111122,1111122,1111122' 
NDBC,ioos:station:wmo:42020:1,2013-05-05T03:00:00Z,26.9680,-96.6940,5.0,6.7,210.0,,'1111122,1111122,1111122' 
NDBC,ioos:station:wmo:42020:1,2013-05-05T04:00:00Z,26.9680,-96.6940,5.0,7.7,210.0,,'1111122,1111122,1111122' 
NDBC,ioos:station:wmo:42020:1,2013-05-05T05:00:00Z,26.9680,-96.6940,5.0,7.7,210.0,,'1111122,1111122,1111122' 
NDBC,ioos:station:wmo:42020:1,2013-05-05T06:00:00Z,26.9680,-96.6940,5.0,8.7,200.0,,'1111122,1111122,1111122' 
NDBC,ioos:station:wmo:42020:1,2013-05-05T07:00:00Z,26.9680,-96.6940,5.0,8.7,200.0,,'1111122,1111122,1111122' 
NDBC,ioos:station:wmo:42020:1,2013-05-05T08:00:00Z,26.9680,-96.6940,5.0,8.7,210.0,,'1111122,1111122,1111122' 
NDBC,ioos:station:wmo:42020:1,2013-05-05T09:00:00Z,26.9680,-96.6940,5.0,7.7,210.0,,'1111122,1111122,1111122' 
NDBC,ioos:station:wmo:42020:1,2013-05-05T10:00:00Z,26.9680,-96.6940,5.0,7.7,220.0,,'1111122,1111122,1111122' 
NDBC,ioos:station:wmo:42020:1,2013-05-05T11:00:00Z,26.9680,-96.6940,5.0,7.7,230.0,,'1111122,1111122,1111122' 
NDBC,ioos:station:wmo:42020:1,2013-05-05T12:00:00Z,26.9680,-96.6940,5.0,7.7,230.0,,'1111122,1111122,1111122' 
NDBC,ioos:station:wmo:42020:1,2013-05-05T13:00:00Z,26.9680,-96.6940,5.0,6.7,280.0,,'1111122,1111122,1111122' 
NDBC,ioos:station:wmo:42020:1,2013-05-05T14:00:00Z,26.9680,-96.6940,5.0,6.7,320.0,,'1111122,1111122,1111122' 
NDBC,ioos:station:wmo:42020:1,2013-05-05T15:00:00Z,26.9680,-96.6940,5.0,7.7,360.0,,'1111122,1111122,1111122' 
NDBC,ioos:station:wmo:42020:1,2013-05-05T16:00:00Z,26.9680,-96.6940,5.0,6.7,340.0,,'1111122,1111122,1111122' 
NDBC,ioos:station:wmo:42020:1,2013-05-05T17:00:00Z,26.9680,-96.6940,5.0,6.7,340.0,,'1111122,1111122,1111122' 
NDBC,ioos:station:wmo:42020:1,2013-05-05T18:00:00Z,26.9680,-96.6940,5.0,5.7,340.0,,'1111122,1111122,1111122' 
NDBC,ioos:station:wmo:42020:1,2013-05-05T19:00:00Z,26.9680,-96.6940,5.0,4.6,360.0,,'1111122,1111122,1111122' 
NDBC,ioos:station:wmo:42020:1,2013-05-05T20:00:00Z,26.9680,-96.6940,5.0,4.6,20.0,,'1111122,1111122,1111122' 
NDBC,ioos:station:wmo:42020:1,2013-05-05T21:00:00Z,26.9680,-96.6940,5.0,2.6,10.0,,'1111122,1111122,1111122' 
NDBC,ioos:station:wmo:42020:1,2013-05-05T22:00:00Z,26.9680,-96.6940,5.0,1.5,30.0,,'1111122,1111122,1111122' 
NDBC,ioos:station:wmo:42020:1,2013-05-05T23:00:00Z,26.9680,-96.6940,5.0,0.5,100.0,,'1111122,1111122,1111122' 
NDBC,ioos:station:wmo:42020:1,2013-05-06T01:00:00Z,26.9680,-96.6940,5.0,1.5,100.0,,'1111122,1111122,1111122' 
NDBC,ioos:station:wmo:42020:1,2013-05-06T02:00:00Z,26.9680,-96.6940,5.0,1.5,90.0,,'1111122,1111122,1111122' 
NDBC,ioos:station:wmo:42020:1,2013-05-06T04:00:00Z,26.9680,-96.6940,5.0,3.6,90.0,,'1111122,1111122,1111122' 
NDBC,ioos:station:wmo:42020:1,2013-05-06T05:00:00Z,26.9680,-96.6940,5.0,2.6,110.0,,'1111122,1111122,1111122' 
NDBC,ioos:station:wmo:42020:1,2013-05-06T06:00:00Z,26.9680,-96.6940,5.0,2.6,120.0,,'1111122,1111122,1111122' 
NDBC,ioos:station:wmo:42020:1,2013-05-06T07:00:00Z,26.9680,-96.6940,5.0,2.6,120.0,,'1111122,1111122,1111122' 
NDBC,ioos:station:wmo:42020:1,2013-05-06T08:00:00Z,26.9680,-96.6940,5.0,1.5,120.0,,'1111122,1111122,1111122' 
NDBC,ioos:station:wmo:42020:1,2013-05-06T09:00:00Z,26.9680,-96.6940,5.0,1.5,130.0,,'1111122,1111122,1111122' 
NDBC,ioos:station:wmo:42020:1,2013-05-06T10:00:00Z,26.9680,-96.6940,5.0,0.5,120.0,,'1111122,1111122,1111122' 
NDBC,ioos:station:wmo:42020:1,2013-05-06T11:00:00Z,26.9680,-96.6940,5.0,1.5,100.0,,'1111122,1111122,1111122' 
NDBC,ioos:station:wmo:42020:1,2013-05-06T12:00:00Z,26.9680,-96.6940,5.0,1.5,110.0,,'1111122,1111122,1111122' 
NDBC,ioos:station:wmo:42020:1,2013-05-06T13:00:00Z,26.9680,-96.6940,5.0,2.6,110.0,,'1111122,1111122,1111122' 
NDBC,ioos:station:wmo:42020:1,2013-05-06T14:00:00Z,26.9680,-96.6940,5.0,1.5,110.0,,'1111122,1111122,1111122' 
NDBC,ioos:station:wmo:42020:1,2013-05-06T15:00:00Z,26.9680,-96.6940,5.0,0.5,130.0,,'1111122,1111122,1111122' 
NDBC,ioos:station:wmo:42020:1,2013-05-06T17:00:00Z,26.9680,-96.6940,5.0,0.5,250.0,,'1111122,1111122,1111122' 
NDBC,ioos:station:wmo:42020:1,2013-05-06T18:00:00Z,26.9680,-96.6940,5.0,1.5,280.0,,'1111122,1111122,1111122' 
NDBC,ioos:station:wmo:42020:1,2013-05-06T19:00:00Z,26.9680,-96.6940,5.0,1.5,330.0,,'1111122,1111122,1111122' 
NDBC,ioos:station:wmo:42020:1,2013-05-06T20:00:00Z,26.9680,-96.6940,5.0,0.5,350.0,,'1111122,1111122,1111122' 
NDBC,ioos:station:wmo:42020:1,2013-05-06T21:00:00Z,26.9680,-96.6940,5.0,0.5,80.0,,'1111122,1111122,1111122' 
NDBC,ioos:station:wmo:42020:1,2013-05-06T22:00:00Z,26.9680,-96.6940,5.0,1.5,160.0,,'1111122,1111122,1111122' 
NDBC,ioos:station:wmo:42020:1,2013-05-06T23:00:00Z,26.9680,-96.6940,5.0,1.5,120.0,,'1111122,1111122,1111122' 
NDBC,ioos:station:wmo:42020:1,2013-05-07T00:00:00Z,26.9680,-96.6940,5.0,0.5,210.0,,'1111122,1111122,1111122' 
NDBC,ioos:station:wmo:42020:1,2013-05-07T02:00:00Z,26.9680,-96.6940,5.0,4.6,140.0,,'1111122,1111122,1111122' 
NDBC,ioos:station:wmo:42020:1,2013-05-07T03:00:00Z,26.9680,-96.6940,5.0,5.7,140.0,,'1111122,1111122,1111122' 
NDBC,ioos:station:wmo:42020:1,2013-05-07T04:00:00Z,26.9680,-96.6940,5.0,3.6,140.0,,'1111122,1111122,1111122' 
NDBC,ioos:station:wmo:42020:1,2013-05-07T05:00:00Z,26.9680,-96.6940,5.0,2.6,150.0,,'1111122,1111122,1111122' 
NDBC,ioos:station:wmo:42020:1,2013-05-07T06:00:00Z,26.9680,-96.6940,5.0,1.5,170.0,,'1111122,1111122,1111122' 
NDBC,ioos:station:wmo:42020:1,2013-05-07T07:00:00Z,26.9680,-96.6940,5.0,8.7,150.0,,'1111122,1111122,1111122' 
NDBC,ioos:station:wmo:42020:1,2013-05-07T08:00:00Z,26.9680,-96.6940,5.0,0.5,180.0,,'1111122,1111122,1111122' 
NDBC,ioos:station:wmo:42020:1,2013-05-07T11:00:00Z,26.9680,-96.6940,5.0,0.5,70.0,,'1111122,1111122,1111122' 
NDBC,ioos:station:wmo:42020:1,2013-05-07T12:00:00Z,26.9680,-96.6940,5.0,1.5,60.0,,'1111122,1111122,1111122' 
NDBC,ioos:station:wmo:42020:1,2013-05-07T13:00:00Z,26.9680,-96.6940,5.0,2.6,50.0,,'1111122,1111122,1111122' 
NDBC,ioos:station:wmo:42020:1,2013-05-07T14:00:00Z,26.9680,-96.6940,5.0,2.6,60.0,,'1111122,1111122,1111122' 
NDBC,ioos:station:wmo:42020:1,2013-05-07T15:00:00Z,26.9680,-96.6940,5.0,1.5,80.0,,'1111122,1111122,1111122' 
NDBC,ioos:station:wmo:42020:1,2013-05-07T16:00:00Z,26.9680,-96.6940,5.0,2.6,100.0,,'1111122,1111122,1111122' 
NDBC,ioos:station:wmo:42020:1,2013-05-07T17:00:00Z,26.9680,-96.6940,5.0,2.6,130.0,,'1111122,1111122,1111122' 
NDBC,ioos:station:wmo:42020:1,2013-05-07T18:00:00Z,26.9680,-96.6940,5.0,2.6,160.0,,'1111122,1111122,1111122' 
NDBC,ioos:station:wmo:42020:1,2013-05-07T19:00:00Z,26.9680,-96.6940,5.0,2.6,160.0,,'1111122,1111122,1111122' 
NDBC,ioos:station:wmo:42020:1,2013-05-07T20:00:00Z,26.9680,-96.6940,5.0,1.5,120.0,,'1111122,1111122,1111122' 
NDBC,ioos:station:wmo:42020:1,2013-05-07T21:00:00Z,26.9680,-96.6940,5.0,1.5,120.0,,'1111122,1111122,1111122' 
NDBC,ioos:station:wmo:42020:1,2013-05-07T22:00:00Z,26.9680,-96.6940,5.0,2.6,160.0,,'1111122,1111122,1111122' 
NDBC,ioos:station:wmo:42020:1,2013-05-07T23:00:00Z,26.9680,-96.6940,5.0,2.6,160.0,,'1111122,1111122,1111122' 
NDBC,ioos:station:wmo:42020:1,2013-05-08T00:00:00Z,26.9680,-96.6940,5.0,3.6,150.0,,'1111122,1111122,1111122' 
NDBC,ioos:station:wmo:42020:1,2013-05-08T01:00:00Z,26.9680,-96.6940,5.0,3.6,160.0,,'1111122,1111122,1111122' 
NDBC,ioos:station:wmo:42020:1,2013-05-08T02:00:00Z,26.9680,-96.6940,5.0,3.6,150.0,,'1111122,1111122,1111122' 
NDBC,ioos:station:wmo:42020:1,2013-05-08T03:00:00Z,26.9680,-96.6940,5.0,4.6,140.0,,'1111122,1111122,1111122' 
NDBC,ioos:station:wmo:42020:1,2013-05-08T04:00:00Z,26.9680,-96.6940,5.0,5.7,140.0,,'1111122,1111122,1111122' 
NDBC,ioos:station:wmo:42020:1,2013-05-08T05:00:00Z,26.9680,-96.6940,5.0,5.7,140.0,,'1111122,1111122,1111122' 
NDBC,ioos:station:wmo:42020:1,2013-05-08T06:00:00Z,26.9680,-96.6940,5.0,5.7,150.0,,'1111122,1111122,1111122' 
NDBC,ioos:station:wmo:42020:1,2013-05-08T07:00:00Z,26.9680,-96.6940,5.0,6.7,150.0,,'1111122,1111122,1111122' 
NDBC,ioos:station:wmo:42020:1,2013-05-08T08:00:00Z,26.9680,-96.6940,5.0,6.7,160.0,,'1111122,1111122,1111122' 
NDBC,ioos:station:wmo:42020:1,2013-05-08T09:00:00Z,26.9680,-96.6940,5.0,5.7,160.0,,'1111122,1111122,1111122' 
NDBC,ioos:station:wmo:42020:1,2013-05-08T10:00:00Z,26.9680,-96.6940,5.0,5.7,150.0,,'1111122,1111122,1111122' 
NDBC,ioos:station:wmo:42020:1,2013-05-08T11:00:00Z,26.9680,-96.6940,5.0,5.7,170.0,,'1111122,1111122,1111122' 
NDBC,ioos:station:wmo:42020:1,2013-05-08T12:00:00Z,26.9680,-96.6940,5.0,6.7,160.0,,'1111122,1111122,1111122' 
NDBC,ioos:station:wmo:42020:1,2013-05-08T13:00:00Z,26.9680,-96.6940,5.0,6.7,160.0,,'1111122,1111122,1111122' 
NDBC,ioos:station:wmo:42020:1,2013-05-08T14:00:00Z,26.9680,-96.6940,5.0,5.7,160.0,,'1111122,1111122,1111122' 
NDBC,ioos:station:wmo:42020:1,2013-05-08T15:00:00Z,26.9680,-96.6940,5.0,5.7,160.0,,'1111122,1111122,1111122' 
NDBC,ioos:station:wmo:42020:1,2013-05-08T16:00:00Z,26.9680,-96.6940,5.0,4.6,160.0,,'1111122,1111122,1111122' 
NDBC,ioos:station:wmo:42020:1,2013-05-08T17:00:00Z,26.9680,-96.6940,5.0,4.6,160.0,,'1111122,1111122,1111122' 
NDBC,ioos:station:wmo:42020:1,2013-05-08T18:00:00Z,26.9680,-96.6940,5.0,4.6,140.0,,'1111122,1111122,1111122' 
NDBC,ioos:station:wmo:42020:1,2013-05-08T19:00:00Z,26.9680,-96.6940,5.0,4.6,140.0,,'1111122,1111122,1111122' 
NDBC,ioos:station:wmo:42020:1,2013-05-08T20:00:00Z,26.9680,-96.6940,5.0,5.7,130.0,,'1111122,1111122,1111122' 
NDBC,ioos:station:wmo:42020:1,2013-05-08T21:00:00Z,26.9680,-96.6940,5.0,5.7,130.0,,'1111122,1111122,1111122' 
NDBC,ioos:station:wmo:42020:1,2013-05-08T22:00:00Z,26.9680,-96.6940,5.0,6.7,120.0,,'1111122,1111122,1111122' 
NDBC,ioos:station:wmo:42020:1,2013-05-08T23:00:00Z,26.9680,-96.6940,5.0,6.7,130.0,,'1111122,1111122,1111122' 
NDBC,ioos:station:wmo:42020:1,2013-05-09T00:00:00Z,26.9680,-96.6940,5.0,6.7,120.0,,'1111122,1111122,1111122' 
NDBC,ioos:station:wmo:42020:1,2013-05-09T01:00:00Z,26.9680,-96.6940,5.0,6.7,120.0,,'1111122,1111122,1111122' 
NDBC,ioos:station:wmo:42020:1,2013-05-09T02:00:00Z,26.9680,-96.6940,5.0,6.7,130.0,,'1111122,1111122,1111122' 
NDBC,ioos:station:wmo:42020:1,2013-05-09T03:00:00Z,26.9680,-96.6940,5.0,6.7,120.0,,'1111122,1111122,1111122' 
NDBC,ioos:station:wmo:42020:1,2013-05-09T04:00:00Z,26.9680,-96.6940,5.0,6.7,130.0,,'1111122,1111122,1111122' 
NDBC,ioos:station:wmo:42020:1,2013-05-09T05:00:00Z,26.9680,-96.6940,5.0,6.7,140.0,,'1111122,1111122,1111122' 
NDBC,ioos:station:wmo:42020:1,2013-05-09T06:00:00Z,26.9680,-96.6940,5.0,7.7,150.0,,'1111122,1111122,1111122' 
NDBC,ioos:station:wmo:42020:1,2013-05-09T07:00:00Z,26.9680,-96.6940,5.0,6.7,150.0,,'1111122,1111122,1111122' 
NDBC,ioos:station:wmo:42020:1,2013-05-09T08:00:00Z,26.9680,-96.6940,5.0,6.7,150.0,,'1111122,1111122,1111122' 
NDBC,ioos:station:wmo:42020:1,2013-05-09T09:00:00Z,26.9680,-96.6940,5.0,5.7,150.0,,'1111122,1111122,1111122' 
NDBC,ioos:station:wmo:42020:1,2013-05-09T10:00:00Z,26.9680,-96.6940,5.0,5.7,150.0,,'1111122,1111122,1111122' 
NDBC,ioos:station:wmo:42020:1,2013-05-09T11:00:00Z,26.9680,-96.6940,5.0,5.7,140.0,,'1111122,1111122,1111122' 
NDBC,ioos:station:wmo:42020:1,2013-05-09T12:00:00Z,26.9680,-96.6940,5.0,6.7,140.0,,'1111122,1111122,1111122' 
NDBC,ioos:station:wmo:42020:1,2013-05-09T13:00:00Z,26.9680,-96.6940,5.0,6.7,160.0,,'1111122,1111122,1111122' 
NDBC,ioos:station:wmo:42020:1,2013-05-09T14:00:00Z,26.9680,-96.6940,5.0,7.7,150.0,,'1111122,1111122,1111122' 
NDBC,ioos:station:wmo:42020:1,2013-05-09T15:00:00Z,26.9680,-96.6940,5.0,6.7,160.0,,'1111122,1111122,1111122' 
NDBC,ioos:station:wmo:42020:1,2013-05-09T16:00:00Z,26.9680,-96.6940,5.0,5.7,150.0,,'1111122,1111122,1111122' 
NDBC,ioos:station:wmo:42020:1,2013-05-09T17:00:00Z,26.9680,-96.6940,5.0,7.7,140.0,,'1111122,1111122,1111122' 
NDBC,ioos:station:wmo:42020:1,2013-05-09T18:00:00Z,26.9680,-96.6940,5.0,6.7,140.0,,'1111122,1111122,1111122' 
NDBC,ioos:station:wmo:42020:1,2013-05-09T19:00:00Z,26.9680,-96.6940,5.0,6.7,140.0,,'1111122,1111122,1111122' 
NDBC,ioos:station:wmo:42020:1,2013-05-09T20:00:00Z,26.9680,-96.6940,5.0,5.7,140.0,,'1111122,1111122,1111122' 
NDBC,ioos:station:wmo:42020:1,2013-05-09T21:00:00Z,26.9680,-96.6940,5.0,3.6,150.0,,'1111122,1111122,1111122' 
NDBC,ioos:station:wmo:42020:1,2013-05-09T22:00:00Z,26.9680,-96.6940,5.0,3.6,140.0,,'1111122,1111122,1111122' 
NDBC,ioos:station:wmo:42020:1,2013-05-09T23:00:00Z,26.9680,-96.6940,5.0,4.6,140.0,,'1111122,1111122,1111122' 
NDBC,ioos:station:wmo:42020:1,2013-05-10T00:00:00Z,26.9680,-96.6940,5.0,5.7,140.0,,'1111122,1111122,1111122' 
NDBC,ioos:station:wmo:42020:1,2013-05-10T01:00:00Z,26.9680,-96.6940,5.0,4.6,140.0,,'1111122,1111122,1111122' 
NDBC,ioos:station:wmo:42020:1,2013-05-10T02:00:00Z,26.9680,-96.6940,5.0,4.6,150.0,,'1111122,1111122,1111122' 
NDBC,ioos:station:wmo:42020:1,2013-05-10T03:00:00Z,26.9680,-96.6940,5.0,3.6,150.0,,'1111122,1111122,1111122' 
NDBC,ioos:station:wmo:42020:1,2013-05-10T04:00:00Z,26.9680,-96.6940,5.0,4.6,150.0,,'1111122,1111122,1111122' 
NDBC,ioos:station:wmo:42020:1,2013-05-10T05:00:00Z,26.9680,-96.6940,5.0,5.7,160.0,,'1111122,1111122,1111122' 
NDBC,ioos:station:wmo:42020:1,2013-05-10T06:00:00Z,26.9680,-96.6940,5.0,7.7,150.0,,'1111122,1111122,1111122' 
NDBC,ioos:station:wmo:42020:1,2013-05-10T07:00:00Z,26.9680,-96.6940,5.0,7.7,160.0,,'1111122,1111122,1111122' 
NDBC,ioos:station:wmo:42020:1,2013-05-10T08:00:00Z,26.9680,-96.6940,5.0,5.7,160.0,,'1111122,1111122,1111122' 